QPF
0.03 0.03 0.03 0.03 0.03 0.02 0.01 0.01 0.01 0.00 0.00 0.00 0.00 0.00 0.00 0.01 0.02 0.02 0.02 0.02 0.02 0.03 0.03 0.04 0.04 0.04 0.03 0.03 0.03 0.03 0.04 0.04 0.05 0.06 0.06 0.07 0.08 0.09
0.03 0.04 0.03 0.04 0.04 0.04 0.02 0.01 0.01 0.01 0.01 0.00 0.00 0.00 0.01 0.01 0.02 0.02 0.01 0.02 0.02 0.03 0.03 0.03 0.02 0.02 0.02 0.02 0.02 0.02 0.03 0.05 0.06 0.06 0.08 0.09 0.09 0.08
0.02 0.02 0.02 0.03 0.03 0.03 0.03 0.02 0.01 0.01 0.01 0.00 0.01 0.01 0.01 0.01 0.02 0.01 0.01 0.01 0.02 0.02 0.04 0.04 0.03 0.01 0.01 0.01 0.01 0.01 0.02 0.03 0.05 0.06 0.07 0.07 0.08 0.10
0.04 0.03 0.02 0.01 0.01 0.01 0.02 0.03 0.02 0.02 0.01 0.01 0.01 0.01 0.01 0.01 0.01 0.01 0.01 0.01 0.01 0.02 0.02 0.03 0.03 0.02 0.01 0.01 0.01 0.01 0.01 0.02 0.03 0.04 0.05 0.05 0.06 0.08
0.04 0.05 0.05 0.04 0.02 0.01 0.01 0.01 0.02 0.02 0.03 0.02 0.01 0.01 0.02 0.02 0.02 0.02 0.02 0.02 0.01 0.01 0.01 0.01 0.01 0.01 0.02 0.01 0.01 0.02 0.01 0.01 0.02 0.03 0.03 0.04 0.06 0.06
0.02 0.03 0.05 0.07 0.05 0.03 0.02 0.01 0.02 0.02 0.02 0.02 0.03 0.03 0.03 0.02 0.02 0.02 0.02 0.02 0.02 0.01 0.01 0.01 0.01 0.01 0.01 0.01 0.01 0.01 0.01 0.02 0.02 0.02 0.02 0.03 0.04 0.05
0.01 0.02 0.02 0.03 0.05 0.06 0.04 0.02 0.02 0.01 0.01 0.02 0.02 0.03 0.03 0.03 0.02 0.02 0.02 0.02 0.02 0.02 0.01 0.01 0.00 0.00 0.01 0.01 0.01 0.01 0.01 0.01 0.01 0.01 0.02 0.03 0.03 0.03
0.01 0.01 0.01 0.02 0.03 0.04 0.04 0.02 0.02 0.01 0.01 0.01 0.02 0.02 0.02 0.01 0.02 0.02 0.02 0.02 0.03 0.02 0.01 0.01 0.00 0.00 0.00 0.01 0.01 0.00 0.00 0.01 0.01 0.01 0.01 0.02 0.03 0.03
0.01 0.01 0.01 0.01 0.02 0.03 0.03 0.02 0.01 0.01 0.01 0.01 0.01 0.01 0.01 0.01 0.03 0.05 0.04 0.03 0.02 0.02 0.01 0.01 0.01 0.00 0.00 0.00 0.00 0.00 0.00 0.00 0.01 0.01 0.02 0.02 0.02 0.02
0.01 0.01 0.01 0.01 0.02 0.02 0.03 0.02 0.01 0.01 0.01 0.01 0.02 0.02 0.02 0.02 0.02 0.05 0.08 0.07 0.06 0.05 0.02 0.01 0.01 0.00 0.00 0.00 0.00 0.00 0.00 0.00 0.00 0.01 0.02 0.02 0.02 0.02
0.01 0.01 0.01 0.01 0.03 0.04 0.03 0.02 0.02 0.01 0.01 0.02 0.03 0.03 0.04 0.04 0.03 0.04 0.06 0.05 0.07 0.06 0.04 0.02 0.01 0.00 0.00 0.00 0.00 0.00 0.00 0.00 0.00 0.01 0.01 0.02 0.02 0.02
0.01 0.01 0.02 0.02 0.03 0.04 0.04 0.03 0.03 0.02 0.01 0.02 0.02 0.03 0.04 0.04 0.04 0.04 0.04 0.04 0.03 0.03 0.03 0.01 0.00 0.00 0.00 0.00 0.00 0.00 0.00 0.00 0.00 0.00 0.00 0.01 0.01 0.01
0.02 0.02 0.02 0.03 0.04 0.05 0.05 0.05 0.05 0.05 0.03 0.03 0.03 0.04 0.05 0.05 0.04 0.05 0.05 0.04 0.03 0.02 0.01 0.01 0.00 0.00 0.00 0.00 0.00 0.00 0.00 0.00 0.00 0.00 0.00 0.00 0.00 0.01
0.02 0.03 0.03 0.04 0.06 0.07 0.06 0.06 0.08 0.08 0.06 0.04 0.04 0.04 0.05 0.05 0.05 0.06 0.06 0.06 0.05 0.04 0.02 0.01 0.00 0.00 0.00 0.00 0.00 0.00 0.00 0.00 0.00 0.00 0.00 0.00 0.00 0.00
0.02 0.04 0.05 0.06 0.07 0.08 0.08 0.08 0.08 0.08 0.07 0.06 0.04 0.04 0.04 0.04 0.06 0.08 0.08 0.07 0.06 0.05 0.03 0.01 0.01 0.01 0.00 0.00 0.00 0.00 0.00 0.00 0.00 0.00 0.00 0.00 0.00 0.00
0.03 0.05 0.07 0.08 0.10 0.12 0.11 0.10 0.09 0.09 0.08 0.06 0.05 0.05 0.05 0.06 0.08 0.09 0.09 0.08 0.06 0.04 0.03 0.01 0.01 0.00 0.00 0.00 0.00 0.00 0.00 0.00 0.00 0.00 0.00 0.00 0.00 0.00
0.06 0.07 0.09 0.11 0.13 0.17 0.15 0.14 0.11 0.11 0.11 0.09 0.06 0.06 0.06 0.06 0.08 0.08 0.07 0.06 0.05 0.03 0.02 0.01 0.01 0.01 0.00 0.00 0.00 0.00 0.00 0.00 0.00 0.00 0.00 0.00 0.00 0.00
0.09 0.11 0.14 0.17 0.18 0.20 0.20 0.17 0.13 0.12 0.12 0.10 0.07 0.06 0.05 0.05 0.06 0.07 0.06 0.05 0.04 0.02 0.01 0.01 0.00 0.00 0.00 0.00 0.00 0.00 0.00 0.00 0.00 0.00 0.00 0.00 0.00 0.00
0.11 0.16 0.18 0.20 0.22 0.23 0.24 0.19 0.13 0.12 0.12 0.10 0.08 0.07 0.05 0.04 0.04 0.05 0.05 0.03 0.03 0.02 0.01 0.01 0.00 0.00 0.00 0.00 0.00 0.00 0.00 0.00 0.00 0.00 0.00 0.00 0.00 0.00
0.13 0.19 0.22 0.23 0.23 0.23 0.23 0.21 0.15 0.12 0.12 0.10 0.08 0.08 0.07 0.04 0.04 0.04 0.04 0.02 0.02 0.01 0.01 0.00 0.00 0.00 0.00 0.00 0.00 0.00 0.00 0.00 0.00 0.00 0.00 0.00 0.00 0.00
0.15 0.22 0.26 0.25 0.22 0.22 0.20 0.19 0.16 0.12 0.11 0.09 0.08 0.08 0.07 0.05 0.03 0.02 0.02 0.02 0.01 0.01 0.01 0.00 0.00 0.00 0.00 0.00 0.00 0.00 0.00 0.00 0.00 0.00 0.00 0.00 0.00 0.00
0.16 0.24 0.27 0.24 0.20 0.19 0.16 0.14 0.14 0.11 0.09 0.08 0.07 0.05 0.05 0.04 0.03 0.02 0.01 0.01 0.01 0.01 0.00 0.00 0.00 0.00 0.00 0.00 0.00 0.00 0.00 0.00 0.00 0.00 0.00 0.00 0.00 0.00
0.18 0.23 0.22 0.18 0.16 0.14 0.12 0.09 0.08 0.07 0.06 0.05 0.04 0.03 0.02 0.02 0.02 0.01 0.01 0.01 0.01 0.01 0.00 0.00 0.00 0.00 0.00 0.00 0.00 0.00 0.00 0.00 0.00 0.00 0.00 0.00 0.00 0.00
MSLP
1010.70 1010.67 1010.63 1010.60 1010.58 1010.58 1010.60 1010.63 1010.68 1010.73 1010.76 1010.78 1010.77 1010.75 1010.70 1010.66 1010.62 1010.61 1010.65 1010.72 1010.83 1010.97 1011.12 1011.24 1011.33 1011.36 1011.33 1011.25 1011.13 1011.00 1010.90 1010.85 1010.88 1011.00 1011.23 1011.55 1011.96 1012.42
1010.41 1010.31 1010.22 1010.13 1010.08 1010.06 1010.08 1010.14 1010.22 1010.33 1010.44 1010.54 1010.63 1010.70 1010.75 1010.80 1010.85 1010.92 1011.01 1011.12 1011.26 1011.40 1011.52 1011.61 1011.64 1011.60 1011.50 1011.32 1011.12 1010.90 1010.72 1010.60 1010.58 1010.66 1010.86 1011.18 1011.58 1012.06
1010.10 1009.95 1009.81 1009.68 1009.59 1009.55 1009.56 1009.63 1009.74 1009.89 1010.06 1010.24 1010.43 1010.60 1010.77 1010.93 1011.09 1011.25 1011.43 1011.61 1011.78 1011.94 1012.06 1012.12 1012.11 1012.02 1011.85 1011.61 1011.34 1011.06 1010.82 1010.65 1010.59 1010.64 1010.82 1011.12 1011.53 1012.02
1009.74 1009.56 1009.39 1009.24 1009.13 1009.07 1009.07 1009.13 1009.25 1009.43 1009.65 1009.89 1010.16 1010.43 1010.71 1010.99 1011.27 1011.54 1011.81 1012.07 1012.30 1012.50 1012.63 1012.69 1012.67 1012.56 1012.36 1012.09 1011.79 1011.48 1011.21 1011.02 1010.93 1010.96 1011.12 1011.42 1011.82 1012.30
1009.29 1009.12 1008.95 1008.80 1008.68 1008.61 1008.60 1008.65 1008.77 1008.94 1009.18 1009.47 1009.79 1010.15 1010.52 1010.91 1011.30 1011.69 1012.06 1012.41 1012.72 1012.97 1013.15 1013.24 1013.24 1013.14 1012.96 1012.70 1012.41 1012.11 1011.85 1011.66 1011.57 1011.59 1011.75 1012.03 1012.41 1012.89
1008.75 1008.61 1008.47 1008.34 1008.23 1008.16 1008.14 1008.16 1008.26 1008.42 1008.65 1008.94 1009.30 1009.71 1010.16 1010.63 1011.12 1011.62 1012.10 1012.54 1012.94 1013.27 1013.52 1013.68 1013.73 1013.69 1013.57 1013.37 1013.13 1012.89 1012.67 1012.51 1012.44 1012.47 1012.62 1012.89 1013.26 1013.71
1008.11 1008.03 1007.93 1007.84 1007.76 1007.69 1007.65 1007.65 1007.71 1007.83 1008.03 1008.30 1008.66 1009.09 1009.59 1010.13 1010.70 1011.29 1011.87 1012.41 1012.91 1013.34 1013.68 1013.93 1014.08 1014.14 1014.11 1014.01 1013.87 1013.71 1013.57 1013.47 1013.44 1013.50 1013.65 1013.91 1014.25 1014.68
1007.40 1007.37 1007.34 1007.29 1007.24 1007.18 1007.12 1007.09 1007.10 1007.17 1007.31 1007.55 1007.88 1008.31 1008.83 1009.41 1010.05 1010.71 1011.38 1012.02 1012.62 1013.15 1013.60 1013.96 1014.23 1014.41 1014.51 1014.54 1014.52 1014.48 1014.44 1014.43 1014.46 1014.55 1014.72 1014.97 1015.29 1015.68
1006.64 1006.68 1006.70 1006.70 1006.67 1006.61 1006.54 1006.47 1006.43 1006.44 1006.52 1006.70 1007.00 1007.41 1007.93 1008.54 1009.22 1009.95 1010.69 1011.42 1012.11 1012.74 1013.30 1013.78 1014.18 1014.49 1014.73 1014.90 1015.02 1015.11 1015.19 1015.28 1015.38 1015.53 1015.72 1015.97 1016.28 1016.63
1005.88 1005.97 1006.04 1006.07 1006.06 1006.01 1005.91 1005.80 1005.71 1005.66 1005.68 1005.81 1006.07 1006.45 1006.97 1007.59 1008.31 1009.08 1009.88 1010.68 1011.46 1012.18 1012.84 1013.43 1013.95 1014.39 1014.76 1015.07 1015.33 1015.56 1015.76 1015.94 1016.13 1016.34 1016.57 1016.83 1017.12 1017.45
1005.18 1005.30 1005.39 1005.44 1005.43 1005.36 1005.25 1005.11 1004.97 1004.87 1004.85 1004.94 1005.16 1005.53 1006.04 1006.67 1007.41 1008.22 1009.07 1009.92 1010.76 1011.56 1012.30 1012.97 1013.59 1014.14 1014.62 1015.06 1015.44 1015.79 1016.10 1016.39 1016.66 1016.93 1017.21 1017.49 1017.79 1018.10
1004.54 1004.67 1004.76 1004.81 1004.80 1004.71 1004.58 1004.41 1004.24 1004.11 1004.07 1004.13 1004.34 1004.70 1005.22 1005.86 1006.62 1007.45 1008.33 1009.23 1010.10 1010.95 1011.74 1012.48 1013.16 1013.79 1014.36 1014.89 1015.37 1015.81 1016.22 1016.60 1016.96 1017.29 1017.62 1017.93 1018.24 1018.55
1003.97 1004.08 1004.16 1004.20 1004.16 1004.07 1003.91 1003.73 1003.56 1003.42 1003.38 1003.45 1003.66 1004.04 1004.56 1005.22 1006.00 1006.85 1007.74 1008.65 1009.55 1010.41 1011.23 1011.99 1012.71 1013.38 1014.01 1014.60 1015.15 1015.67 1016.15 1016.61 1017.04 1017.43 1017.81 1018.16 1018.50 1018.82
1003.45 1003.53 1003.58 1003.59 1003.54 1003.43 1003.27 1003.10 1002.93 1002.82 1002.80 1002.90 1003.14 1003.55 1004.10 1004.78 1005.56 1006.42 1007.32 1008.23 1009.12 1009.98 1010.79 1011.56 1012.28 1012.96 1013.61 1014.23 1014.82 1015.38 1015.93 1016.44 1016.92 1017.38 1017.80 1018.20 1018.57 1018.91
1002.93 1002.98 1003.00 1002.99 1002.92 1002.81 1002.67 1002.52 1002.39 1002.32 1002.35 1002.50 1002.79 1003.23 1003.81 1004.52 1005.31 1006.17 1007.06 1007.95 1008.82 1009.65 1010.44 1011.18 1011.88 1012.55 1013.19 1013.82 1014.42 1015.01 1015.59 1016.14 1016.67 1017.17 1017.64 1018.07 1018.47 1018.84
1002.39 1002.41 1002.41 1002.38 1002.31 1002.22 1002.10 1002.00 1001.93 1001.93 1002.02 1002.24 1002.59 1003.07 1003.69 1004.41 1005.21 1006.06 1006.93 1007.79 1008.62 1009.41 1010.16 1010.86 1011.53 1012.17 1012.79 1013.40 1014.00 1014.60 1015.19 1015.76 1016.32 1016.85 1017.35 1017.82 1018.24 1018.63
1001.82 1001.82 1001.81 1001.78 1001.73 1001.67 1001.60 1001.56 1001.57 1001.64 1001.82 1002.10 1002.52 1003.05 1003.69 1004.42 1005.22 1006.05 1006.89 1007.71 1008.50 1009.25 1009.95 1010.61 1011.23 1011.84 1012.43 1013.01 1013.60 1014.19 1014.77 1015.36 1015.92 1016.47 1016.98 1017.46 1017.90 1018.29
1001.25 1001.24 1001.24 1001.22 1001.20 1001.19 1001.19 1001.23 1001.32 1001.48 1001.74 1002.10 1002.56 1003.14 1003.80 1004.53 1005.31 1006.12 1006.92 1007.70 1008.44 1009.14 1009.80 1010.42 1011.00 1011.57 1012.12 1012.68 1013.24 1013.81 1014.38 1014.95 1015.51 1016.05 1016.56 1017.03 1017.46 1017.85
1000.72 1000.72 1000.73 1000.75 1000.78 1000.82 1000.90 1001.02 1001.20 1001.45 1001.78 1002.20 1002.71 1003.31 1003.99 1004.71 1005.47 1006.24 1007.00 1007.74 1008.44 1009.10 1009.71 1010.29 1010.84 1011.37 1011.90 1012.43 1012.96 1013.50 1014.05 1014.59 1015.12 1015.64 1016.12 1016.56 1016.97 1017.33
1000.29 1000.30 1000.34 1000.40 1000.48 1000.60 1000.75 1000.96 1001.22 1001.54 1001.94 1002.41 1002.96 1003.57 1004.24 1004.95 1005.68 1006.41 1007.13 1007.83 1008.49 1009.11 1009.69 1010.24 1010.76 1011.26 1011.76 1012.26 1012.75 1013.26 1013.76 1014.27 1014.76 1015.23 1015.66 1016.06 1016.42 1016.74
999.99 1000.03 1000.10 1000.21 1000.35 1000.54 1000.76 1001.04 1001.37 1001.76 1002.21 1002.71 1003.28 1003.89 1004.54 1005.22 1005.92 1006.61 1007.29 1007.95 1008.58 1009.17 1009.72 1010.25 1010.74 1011.22 1011.69 1012.15 1012.61 1013.07 1013.53 1013.98 1014.41 1014.82 1015.20 1015.53 1015.83 1016.09
999.86 999.93 1000.03 1000.18 1000.38 1000.62 1000.91 1001.25 1001.64 1002.07 1002.55 1003.07 1003.64 1004.24 1004.87 1005.52 1006.17 1006.83 1007.47 1008.09 1008.69 1009.25 1009.79 1010.29 1010.76 1011.22 1011.65 1012.08 1012.49 1012.90 1013.30 1013.68 1014.05 1014.39 1014.70 1014.96 1015.19 1015.38
999.88 999.97 1000.11 1000.30 1000.54 1000.84 1001.17 1001.55 1001.97 1002.43 1002.93 1003.45 1004.00 1004.58 1005.18 1005.79 1006.40 1007.02 1007.63 1008.22 1008.79 1009.32 1009.84 1010.32 1010.77 1011.19 1011.59 1011.97 1012.34 1012.69 1013.03 1013.35 1013.64 1013.91 1014.14 1014.34 1014.50 1014.62
Thickness
5668 5671 5673 5676 5678 5681 5682 5683 5681 5682 5684 5688 5692 5695 5696 5696 5696 5695 5695 5694 5694 5694 5694 5694 5694 5695 5695 5697 5699 5702 5704 5706 5708 5710 5711 5713 5714 5714
5657 5661 5664 5668 5670 5673 5676 5677 5679 5679 5680 5683 5685 5688 5689 5690 5689 5689 5688 5687 5686 5686 5686 5686 5687 5687 5689 5690 5692 5695 5698 5700 5702 5704 5706 5707 5708 5709
5644 5649 5653 5658 5661 5664 5667 5670 5672 5674 5675 5678 5679 5681 5682 5682 5682 5681 5680 5679 5678 5678 5678 5678 5678 5679 5681 5682 5684 5687 5690 5693 5695 5697 5698 5700 5701 5703
5630 5635 5641 5646 5650 5654 5658 5662 5666 5669 5670 5672 5673 5674 5675 5675 5675 5674 5673 5671 5670 5669 5669 5670 5670 5671 5672 5673 5675 5678 5681 5684 5687 5689 5690 5691 5693 5693
5615 5621 5627 5633 5639 5644 5649 5653 5657 5661 5664 5665 5667 5668 5668 5668 5667 5666 5664 5663 5662 5660 5660 5660 5660 5661 5662 5664 5666 5668 5671 5674 5677 5679 5680 5681 5683 5683
5599 5606 5612 5619 5627 5633 5639 5644 5649 5652 5656 5658 5660 5662 5662 5662 5662 5659 5656 5654 5653 5652 5651 5650 5650 5651 5652 5654 5656 5658 5661 5663 5665 5668 5669 5670 5671 5672
5584 5591 5598 5606 5614 5622 5629 5635 5640 5644 5648 5652 5655 5656 5657 5656 5656 5654 5651 5647 5644 5643 5643 5641 5641 5642 5642 5643 5646 5648 5650 5652 5654 5656 5658 5658 5659 5659
5568 5576 5583 5592 5602 5610 5618 5626 5632 5637 5642 5647 5651 5653 5654 5654 5652 5650 5646 5643 5639 5635 5636 5632 5632 5632 5632 5634 5635 5638 5640 5641 5643 5645 5646 5646 5647 5647
5554 5561 5570 5580 5588 5597 5607 5615 5624 5631 5638 5644 5647 5651 5652 5652 5649 5645 5643 5641 5638 5633 5630 5625 5623 5623 5623 5624 5626 5628 5630 5631 5632 5633 5634 5634 5635 5635
5542 5548 5556 5566 5575 5584 5594 5605 5615 5624 5631 5637 5644 5648 5649 5649 5648 5646 5640 5634 5629 5626 5626 5621 5616 5615 5615 5615 5616 5619 5620 5621 5622 5623 5623 5624 5624 5624
5535 5540 5546 5555 5564 5573 5583 5594 5605 5615 5623 5630 5636 5640 5642 5642 5642 5638 5634 5631 5625 5620 5620 5618 5611 5608 5607 5606 5607 5609 5611 5612 5612 5613 5613 5613 5613 5613
5528 5533 5538 5546 5553 5562 5573 5584 5596 5607 5614 5621 5626 5630 5634 5635 5636 5638 5636 5631 5625 5618 5615 5614 5609 5608 5602 5599 5600 5601 5602 5603 5603 5604 5604 5604 5605 5605
5523 5528 5533 5539 5545 5553 5564 5576 5589 5597 5605 5613 5619 5623 5627 5629 5630 5632 5633 5632 5627 5622 5617 5614 5608 5607 5606 5598 5595 5594 5596 5596 5596 5595 5595 5596 5596 5597
5520 5524 5529 5533 5539 5547 5556 5568 5577 5586 5597 5605 5613 5618 5622 5624 5625 5625 5625 5625 5626 5624 5618 5616 5610 5607 5604 5599 5594 5590 5589 5590 5590 5589 5589 5588 5587 5588
5516 5519 5523 5527 5533 5541 5550 5560 5569 5580 5591 5600 5609 5615 5619 5621 5619 5617 5615 5615 5614 5613 5611 5611 5609 5605 5604 5600 5594 5590 5587 5584 5584 5584 5583 5583 5582 5582
5511 5514 5517 5521 5527 5536 5544 5554 5565 5577 5588 5597 5604 5609 5611 5612 5613 5613 5610 5608 5605 5601 5601 5602 5603 5601 5598 5595 5593 5588 5586 5583 5580 5579 5578 5577 5577 5577
5507 5509 5513 5518 5524 5532 5541 5551 5562 5573 5582 5591 5598 5603 5606 5607 5607 5607 5606 5605 5602 5598 5594 5592 5592 5592 5592 5591 5587 5584 5581 5579 5577 5575 5574 5574 5573 5573
5502 5507 5511 5517 5523 5531 5540 5549 5560 5570 5580 5588 5595 5599 5602 5603 5602 5601 5601 5601 5598 5595 5591 5589 5587 5586 5583 5579 5580 5580 5577 5575 5572 5571 5571 5571 5571 5570
5500 5505 5510 5515 5522 5530 5539 5549 5559 5569 5578 5585 5591 5595 5598 5598 5598 5596 5596 5595 5592 5589 5587 5586 5586 5586 5583 5579 5573 5573 5574 5571 5569 5567 5567 5568 5569 5568
5501 5505 5510 5515 5522 5530 5540 5550 5558 5566 5574 5581 5586 5590 5592 5593 5592 5591 5590 5589 5586 5583 5580 5580 5582 5583 5582 5579 5574 5570 5569 5568 5567 5565 5564 5562 5562 5561
5502 5506 5511 5516 5523 5531 5540 5549 5558 5565 5571 5577 5580 5583 5586 5587 5586 5585 5584 5579 5581 5580 5578 5576 5575 5575 5575 5573 5570 5567 5564 5563 5565 5564 5561 5560 5559 5558
5505 5509 5514 5519 5526 5533 5541 5548 5556 5562 5567 5572 5574 5577 5579 5580 5580 5579 5579 5577 5577 5576 5573 5569 5567 5568 5570 5569 5568 5565 5562 5559 5558 5558 5558 5559 5558 5557
5509 5513 5517 5523 5530 5537 5544 5550 5556 5560 5564 5568 5570 5572 5574 5574 5575 5575 5574 5573 5572 5569 5566 5564 5563 5564 5565 5565 5564 5562 5560 5558 5556 5555 5555 5554 5553 5552